Date String (YYYY-MM-DD hh:mm:ss) UTC,Instrument flags,absolute air pressure of the measurement (hPa),sample flow rate (lpm),inlet stack bypass flow (lpm),air temperature of the measurement (°C),ambient temperature measured by the external sensor (°C),aerosol sample conditioner tube jacket temperature (°C),OPC LED temperature (°C),internal box temperature (°C),relative humidity of the measurement (%),span deviation,mass concentration of particles derived from Lorenz-Mie calculation of OPC scattering (μg/m³),mass concentration of particles derived from Lorenz-Mie calculation of OPC scattering (μg/m³),mass concentration of particles derived from Lorenz-Mie calculation of OPC scattering (μg/m³)
DateTimeUTC,F1_M11,P_M11,Q1_M11,Q2_M11,T1_M11,T2_M11,T3_M11,T4_M11,T5_M11,U1_M11,ZSPAN_M11,X2_M11,X0_M11,X1_M11
2023-06-27 19:00:00,SystemResetWarning,0825.1,5.00,000.00,029.8,025.9,000.0,038.2,030.8,28.7,0003.1,0011.66,0032.06,0009.84
2023-06-27 19:01:00,SystemResetWarning,0825.2,5.00,000.00,029.8,026.4,000.0,038.2,030.8,28.8,0003.1,0011.64,0031.10,0009.83
2023-06-27 19:02:00,SystemResetWarning,0825.1,5.00,000.00,029.8,026.8,000.0,038.2,030.9,28.3,0003.4,0011.64,0030.10,0009.80
2023-06-27 19:03:00,SystemResetWarning,0825.1,4.99,000.00,029.8,027.2,000.0,038.2,031.0,25.8,0003.4,0011.63,0029.67,0009.79
2023-06-27 19:04:00,SystemResetWarning,0824.9,4.99,000.00,029.8,027.3,000.0,038.2,031.1,24.3,0003.6,0011.57,0029.18,0009.77
2023-06-27 19:05:00,SystemResetWarning,0824.9,5.00,000.00,029.9,025.9,000.0,038.2,031.1,24.5,0003.6,0011.53,0028.33,0009.75
2023-06-27 19:06:00,SystemResetWarning,0824.9,4.99,000.00,029.8,024.7,000.0,038.1,031.1,27.1,0003.3,0011.46,0029.55,0009.72
2023-06-27 19:07:00,SystemResetWarning,0824.9,5.01,000.00,029.8,024.7,000.0,038.1,030.9,27.3,0003.6,0011.38,0030.00,0009.70
2023-06-27 19:08:00,SystemResetWarning,0824.9,5.02,000.00,029.6,025.0,000.0,038.0,030.5,22.4,0003.5,0011.31,0027.82,0009.68
2023-06-27 19:09:00,SystemResetWarning,0824.9,5.00,000.00,029.6,025.5,000.0,038.0,030.5,25.5,0003.7,0011.21,0026.14,0009.61
2023-06-27 19:10:00,SystemResetWarning,0824.9,5.00,000.00,029.5,026.0,000.0,038.0,030.6,25.3,0003.8,0011.11,0024.34,0009.54
2023-06-27 19:11:00,SystemResetWarning,0824.9,5.00,000.00,029.5,026.5,000.0,038.0,030.7,26.7,0003.8,0011.02,0025.88,0009.49
2023-06-27 19:12:00,SystemResetWarning,0824.9,5.00,000.00,029.6,026.9,000.0,038.0,030.8,27.7,0003.8,0010.99,0027.05,0009.47
2023-06-27 19:13:00,SystemResetWarning,0824.9,5.01,000.00,029.6,027.2,000.0,038.1,030.9,26.1,0003.7,0011.00,0027.04,0009.48
2023-06-27 19:14:00,SystemResetWarning,0824.9,4.99,000.00,029.6,027.4,000.0,038.0,031.0,25.5,0003.8,0010.89,0026.90,0009.40
2023-06-27 19:15:00,SystemResetWarning,0824.9,4.99,000.00,029.6,026.2,000.0,038.0,031.0,24.4,0003.7,0010.79,0028.51,0009.30
2023-06-27 19:16:00,SystemResetWarning,0824.9,5.00,000.00,029.6,024.8,000.0,037.9,030.8,24.6,0003.7,0010.66,0028.21,0009.26
2023-06-27 19:17:00,SystemResetWarning,0824.9,5.00,000.00,029.5,024.7,000.0,037.9,030.8,24.2,0003.6,0010.63,0027.87,0009.22
2023-06-27 19:18:00,SystemResetWarning,0824.8,5.01,000.00,029.4,025.0,000.0,037.9,030.5,23.0,0003.6,0010.63,0026.75,0009.19
2023-06-27 19:19:00,SystemResetWarning,0824.8,5.00,000.00,029.4,025.5,000.0,037.9,030.5,23.0,0003.5,0010.65,0027.45,0009.17
2023-06-27 19:20:00,SystemResetWarning,0824.7,5.00,000.00,029.3,026.0,000.0,037.9,030.5,22.2,0003.6,0010.65,0027.23,0009.15
2023-06-27 19:21:00,SystemResetWarning,0824.7,5.00,000.00,029.4,026.4,000.0,037.9,030.7,23.0,0003.6,0010.64,0026.74,0009.12
2023-06-27 19:22:00,SystemResetWarning,0824.7,4.99,000.00,029.4,026.9,000.0,037.9,030.8,23.0,0004.0,0010.63,0025.04,0009.10
2023-06-27 19:23:00,SystemResetWarning,0824.8,4.99,000.00,029.4,027.2,000.0,037.9,030.9,21.6,0003.8,0010.62,0023.86,0009.07
2023-06-27 19:24:00,SystemResetWarning,0824.8,4.99,000.00,029.4,027.0,000.0,037.9,031.0,19.9,0003.4,0010.51,0023.03,0008.96
2023-06-27 19:25:00,SystemResetWarning,0824.9,5.01,000.00,029.4,025.4,000.0,037.8,030.8,20.7,0002.8,0010.44,0023.59,0008.90
2023-06-27 19:26:00,SystemResetWarning,0824.9,5.00,000.00,029.4,024.5,000.0,037.7,030.8,21.8,0002.6,0010.41,0023.33,0008.85
2023-06-27 19:27:00,SystemResetWarning,0824.9,5.00,000.00,029.3,024.7,000.0,037.7,030.6,23.4,0002.3,0010.30,0023.45,0008.74
2023-06-27 19:28:00,SystemResetWarning,0824.9,5.01,000.00,029.2,025.1,000.0,037.7,030.4,24.9,0002.5,0010.14,0022.32,0008.62
2023-06-27 19:29:00,SystemResetWarning,0824.8,5.00,000.00,029.2,025.6,000.0,037.7,030.4,25.1,0002.9,0009.94,0022.16,0008.46
2023-06-27 19:30:00,SystemResetWarning,0824.8,5.00,000.00,029.2,026.1,000.0,037.7,030.5,24.6,0003.3,0009.69,0022.54,0008.28
2023-06-27 19:31:00,SystemResetWarning,0824.8,5.01,000.00,029.2,026.6,000.0,037.7,030.7,25.5,0003.5,0009.51,0021.56,0008.13
2023-06-27 19:32:00,SystemResetWarning,0824.7,5.00,000.00,029.2,026.9,000.0,037.7,030.7,22.2,0003.7,0009.33,0021.90,0008.00
2023-06-27 19:33:00,SystemResetWarning,0824.8,4.99,000.00,029.3,027.3,000.0,037.7,030.8,22.6,0003.5,0009.22,0022.42,0007.93
2023-06-27 19:34:00,SystemResetWarning,0824.7,4.99,000.00,029.3,027.2,000.0,037.7,030.9,19.5,0003.5,0009.08,0021.97,0007.87
2023-06-27 19:35:00,SystemResetWarning,0824.7,4.99,000.00,029.3,025.6,000.0,037.7,030.8,19.5,0003.3,0009.08,0022.13,0007.86
2023-06-27 19:36:00,SystemResetWarning,0824.7,5.00,000.00,029.3,024.5,000.0,037.6,030.7,20.2,0003.8,0009.11,0021.27,0007.86
2023-06-27 19:37:00,SystemResetWarning,0824.7,5.00,000.00,029.2,024.7,000.0,037.6,030.7,21.6,0004.1,0009.10,0019.86,0007.87
2023-06-27 19:38:00,SystemResetWarning,0824.7,5.01,000.00,029.2,025.1,000.0,037.6,030.4,23.6,0004.3,0009.08,0019.74,0007.85
2023-06-27 19:39:00,SystemResetWarning,0824.8,5.00,000.00,029.1,025.6,000.0,037.6,030.4,23.2,0004.3,0009.02,0019.34,0007.77
2023-06-27 19:40:00,SystemResetWarning,0824.7,5.00,000.00,029.1,026.1,000.0,037.6,030.5,23.6,0004.2,0008.93,0018.86,0007.69
2023-06-27 19:41:00,SystemResetWarning,0824.8,4.99,000.00,029.1,026.5,000.0,037.6,030.6,22.3,0004.2,0008.83,0017.36,0007.61
2023-06-27 19:42:00,SystemResetWarning,0824.8,4.99,000.00,029.2,026.9,000.0,037.6,030.7,20.3,0004.1,0008.77,0019.04,0007.53
2023-06-27 19:43:00,SystemResetWarning,0824.7,5.00,000.00,029.2,027.2,000.0,037.6,030.8,20.3,0004.2,0008.65,0018.94,0007.45
2023-06-27 19:44:00,SystemResetWarning,0824.7,4.99,000.00,029.2,027.3,000.0,037.6,030.9,21.6,0004.4,0008.50,0018.33,0007.33
2023-06-27 19:45:00,SystemResetWarning,0824.7,4.99,000.00,029.3,025.8,000.0,037.6,030.8,22.6,0004.6,0008.38,0018.14,0007.21
2023-06-27 19:46:00,SystemResetWarning,0824.7,5.00,000.00,029.2,024.6,000.0,037.5,030.7,22.5,0004.8,0008.20,0018.72,0007.09
2023-06-27 19:47:00,SystemResetWarning,0824.6,5.00,000.00,029.2,024.6,000.0,037.5,030.6,23.3,0004.7,0008.05,0019.57,0006.97
2023-06-27 19:48:00,SystemResetWarning,0824.6,5.01,000.00,029.1,025.0,000.0,037.5,030.3,20.9,0004.6,0007.95,0019.24,0006.85
2023-06-27 19:49:00,SystemResetWarning,0824.6,4.99,000.00,029.0,025.5,000.0,037.5,030.3,20.3,0004.3,0007.84,0019.14,0006.77
2023-06-27 19:50:00,SystemResetWarning,0824.7,5.00,000.00,029.0,026.0,000.0,037.5,030.5,21.4,0004.1,0007.76,0019.49,0006.75
2023-06-27 19:51:00,SystemResetWarning,0824.7,4.99,000.00,029.1,026.4,000.0,037.5,030.6,22.1,0004.4,0007.78,0019.70,0006.79
2023-06-27 19:52:00,SystemResetWarning,0824.7,5.01,000.00,029.1,026.8,000.0,037.5,030.7,21.6,0004.1,0007.85,0019.66,0006.86
2023-06-27 19:53:00,SystemResetWarning,0824.7,5.00,000.00,029.1,027.2,000.0,037.6,030.7,21.5,0001.8,0007.91,0018.91,0006.92
2023-06-27 19:54:00,SystemResetWarning,0824.7,4.99,000.00,029.2,027.4,000.0,037.6,030.8,19.7,0004.5,0007.97,0018.41,0006.95
2023-06-27 19:55:00,SystemResetWarning,0824.7,4.98,000.00,029.2,026.0,000.0,037.5,030.9,19.6,0003.2,0007.96,0017.90,0006.91
2023-06-27 19:56:00,SystemResetWarning,0824.6,5.00,000.00,029.2,024.6,000.0,037.5,030.8,21.3,0000.0,0007.94,0017.70,0006.85
2023-06-27 19:57:00,SystemResetWarning,0824.6,5.01,000.00,029.1,024.6,000.0,037.4,030.7,21.8,0000.0,0007.94,0017.20,0006.83
2023-06-27 19:58:00,SystemResetWarning,0824.6,5.02,000.00,029.1,024.9,000.0,037.5,030.4,22.5,0000.0,0007.86,0016.13,0006.78
2023-06-27 19:59:00,SystemResetWarning,0824.6,5.00,000.00,029.0,025.4,000.0,037.5,030.4,23.8,0000.0,0007.76,0016.00,0006.70
